Location: Moonridge Observatory
(39.2268°N, 77.7914°W)
Time: 16:48:14
(UTC-04:00)

Amateur Radio Satellites - All Passes

Search period start: 25 September 2016 16:18
Search period end: 26 September 2016 16:18
Location: Moonridge Observatory, 39.2268°N, 77.7914°W

Satellite Date Start Highest point End Downlink Frequencies (MHz)
Time Altitude Azimuth
SWISSCUBE 25 Sep 16:20:07 16:24:37 41° 289° (WNW) 16:29:06 437.505
AIST 1 25 Sep 16:26:45 16:30:02 21° 74° (ENE) 16:33:16
BEESAT 25 Sep 16:33:35 16:37:53 34° 291° (WNW) 16:42:10 436.000
STARS 25 Sep 16:38:48 16:40:57 13° 92° (E) 16:43:05 437.465
Cosmos 2504 25 Sep 16:44:45 16:51:58 59° 268° (W) 16:59:40 435.465 / 435.565
MOZHAYETS 4 25 Sep 16:46:41 16:51:18 60° 101° (E) 16:55:52
BRITE-PL 25 Sep 16:49:13 16:53:21 21° 65° (ENE) 16:57:27 437.365/2234.400
ITAMSAT 1 25 Sep 16:54:38 16:56:58 13° 269° (W) 16:59:20 435.822/435.867
PHONESAT 2.4 25 Sep 16:54:41 16:57:33 44° 201° (SSW) 17:00:25 2401.200-2431.200
NOAA 18 25 Sep 17:13:14 17:14:56 11° 58° (ENE) 17:16:38 137.9125
KKS-1 25 Sep 17:32:04 17:36:29 69° 285° (WNW) 17:40:51 437.445
HORYU 2 25 Sep 17:49:16 17:53:37 60° 259° (WSW) 17:58:00 437.375
SO-50 25 Sep 17:52:15 17:55:46 20° 315° (NW) 17:59:14 436.795
Cosmos 2491 25 Sep 17:56:07 18:01:49 18° 297° (WNW) 18:07:34 435.465 / 435.565
CUBESAT XI-V 25 Sep 17:59:07 18:03:38 45° 99° (E) 18:08:06 437.345
O/OREOS (USA 219) 25 Sep 17:59:40 18:04:12 57° 66° (ENE) 18:08:42 437.305
AIST 1 25 Sep 18:03:56 18:07:37 28° 270° (W) 18:11:16
AO-7 25 Sep 18:07:05 18:10:47 13° 271° (W) 18:14:31 29.400- 29.500
STARS 25 Sep 18:13:21 18:17:34 50° 287° (WNW) 18:21:47 437.465
HO-68 25 Sep 18:14:15 18:16:55 12° 52° (NE) 18:19:34 435.675
NOAA 15 25 Sep 18:23:23 18:28:40 73° 74° (ENE) 18:33:59 137.62
MOZHAYETS 4 25 Sep 18:25:34 18:27:56 14° 296° (WNW) 18:30:16
BRITE-PL 25 Sep 18:25:46 18:31:21 56° 261° (W) 18:36:54 437.365/2234.400
LilacSat-2 25 Sep 18:28:23 18:32:04 60° 76° (ENE) 18:35:48 437.200
GOMX 1 25 Sep 18:29:06 18:34:32 76° 76° (ENE) 18:39:48 467.674
Cubesat XI-IV 25 Sep 18:29:54 18:35:09 67° 73° (ENE) 18:40:26 437.490
CUTE-I 25 Sep 18:30:56 18:36:11 69° 74° (ENE) 18:41:29 437.470
GONETS M04 25 Sep 18:31:54 18:34:24 11° 57° (ENE) 18:36:54
NOAA 18 25 Sep 18:49:15 18:54:44 84° 75° (ENE) 19:00:14 137.9125
CINEMA 3 25 Sep 19:00:58 19:03:50 17° 67° (ENE) 19:06:38 145.822/145.860
DOVE 4 25 Sep 19:04:26 19:09:32 75° 76° (ENE) 19:14:23 437.250
RS-15 25 Sep 19:12:56 19:21:23 24° 100° (E) 19:30:05 29.354- 29.394
STRAND 1 25 Sep 19:35:35 19:39:30 21° 94° (E) 19:43:23 437.568
CUBESAT XI-V 25 Sep 19:37:28 19:40:37 18° 295° (WNW) 19:43:47 437.345
O/OREOS (USA 219) 25 Sep 19:41:00 19:43:03 13° 262° (W) 19:45:06 437.305
COMPASS 1 25 Sep 19:45:44 19:48:22 17° 66° (ENE) 19:51:00 437.405
CUSAT 1 25 Sep 19:46:35 19:52:16 62° 94° (E) 19:59:28 437.405
HO-68 25 Sep 19:56:13 20:03:18 67° 70° (ENE) 20:10:24 435.675
CUTE 1.7 + AOD 2 25 Sep 20:01:16 20:05:22 52° 74° (ENE) 20:09:31 437.475
CANX-2 25 Sep 20:01:54 20:06:04 62° 75° (ENE) 20:10:17 2200.000
Cosmos 2499 25 Sep 20:02:58 20:09:53 38° 75° (ENE) 20:17:15 435.465 / 435.565
NOAA 15 25 Sep 20:06:38 20:08:57 13° 270° (W) 20:11:17 137.62
SEEDS 25 Sep 20:07:45 20:11:43 42° 73° (ENE) 20:15:42 437.485
GOMX 1 25 Sep 20:10:35 20:13:01 13° 270° (W) 20:15:25 467.674
Cubesat XI-IV 25 Sep 20:12:57 20:15:41 14° 269° (W) 20:18:25 437.490
CUTE-I 25 Sep 20:14:08 20:16:43 14° 269° (W) 20:19:18 437.470
GONETS M04 25 Sep 20:24:27 20:33:14 64° 79° (E) 20:41:53
CUBEBUG 2 25 Sep 20:24:56 20:28:46 34° 72° (ENE) 20:32:32 437.445
NOAA 18 25 Sep 20:34:25 20:36:00 11° 270° (W) 20:37:36 137.9125
CINEMA 3 25 Sep 20:36:19 20:40:39 43° 261° (W) 20:44:52 145.822/145.860
AAUSAT CUBESAT 2 25 Sep 20:37:50 20:41:50 49° 74° (ENE) 20:45:53 437.432
FUNcube-1 25 Sep 20:43:56 20:47:03 21° 68° (ENE) 20:50:09 145.935
DOVE 4 25 Sep 20:45:55 20:47:35 11° 270° (W) 20:49:14 437.250
UWE-3 25 Sep 20:48:23 20:52:18 40° 73° (ENE) 20:56:12 435.000/436.395/437.385
DANDE 25 Sep 20:53:10 20:57:51 84° 96° (E) 21:04:13 436.750
STRAND 1 25 Sep 21:13:58 21:18:49 43° 290° (WNW) 21:23:39 437.568
COMPASS 1 25 Sep 21:19:41 21:23:35 39° 262° (W) 21:27:32 437.405
RS-15 25 Sep 21:20:37 21:32:13 85° 301° (WNW) 21:44:31 29.354- 29.394
ZACube-1 25 Sep 21:23:21 21:27:27 65° 76° (ENE) 21:31:33 437.345
Oscar 11 25 Sep 21:26:02 21:30:18 69° 75° (ENE) 21:34:37 145.826/435.025
CUSAT 1 25 Sep 21:30:15 21:35:02 23° 297° (WNW) 21:40:37 437.405
CUTE 1.7 + AOD 2 25 Sep 21:39:51 21:41:31 12° 269° (W) 21:43:11 437.475
ISS 25 Sep 21:41:03 21:44:18 81° 138° (SE) 21:47:34 145.825
SEEDS 25 Sep 21:45:14 21:47:36 15° 268° (W) 21:50:00 437.485
HO-68 25 Sep 21:46:14 21:51:29 22° 267° (W) 21:56:47 435.675
AO-85 25 Sep 21:50:30 21:55:39 56° 117° (ESE) 22:00:30 145.980
Cosmos 2499 25 Sep 21:56:05 22:02:56 39° 271° (W) 22:10:15 435.465 / 435.565
CUBEBUG 2 25 Sep 22:02:34 22:05:28 18° 266° (W) 22:08:21 437.445
HUMSAT D 25 Sep 22:06:11 22:09:54 35° 72° (ENE) 22:13:40 437.325/437.525
PRISM 25 Sep 22:08:36 22:12:46 82° 106° (ESE) 22:16:52 437.425
AAUSAT CUBESAT 2 25 Sep 22:15:51 22:17:36 12° 269° (W) 22:19:20 437.432
DELFI C3 25 Sep 22:19:27 22:23:26 71° 259° (WSW) 22:27:27 145.870
FUNcube-1 25 Sep 22:19:31 22:23:07 29° 264° (W) 22:26:44 145.935
GONETS M04 25 Sep 22:22:27 22:29:18 26° 278° (W) 22:36:06
ANTELSAT 25 Sep 22:25:43 22:28:20 15° 93° (E) 22:30:58 437.575/2403.000
UWE-3 25 Sep 22:26:35 22:28:56 15° 267° (W) 22:31:18 435.000/436.395/437.385
DANDE 25 Sep 22:39:34 22:42:00 13° 303° (WNW) 22:44:43 436.750
TIGRISAT 25 Sep 22:46:08 22:49:44 24° 96° (E) 22:53:22 435.000
AISAT 25 Sep 23:09:36 23:12:24 17° 65° (ENE) 23:15:11 437.250
AUBIESAT-1 25 Sep 23:12:29 23:14:39 14° 62° (ENE) 23:16:45 437.475
ISS 25 Sep 23:18:50 23:21:09 18° 338° (NNW) 23:23:27 145.825
SPROUT 25 Sep 23:22:34 23:23:19 10° 63° (ENE) 23:24:06 437.525
UNISAT 6 25 Sep 23:25:21 23:29:44 73° 102° (ESE) 23:34:13 437.425
UKube-1 25 Sep 23:30:39 23:32:29 12° 63° (ENE) 23:34:18 .
AO-85 25 Sep 23:32:27 23:36:23 22° 313° (NW) 23:40:09 145.980
QB50P1 25 Sep 23:36:15 23:37:02 10° 90° (E) 23:37:50 145.935-145.965
RS-15 25 Sep 23:36:39 23:46:44 31° 328° (NNW) 23:57:14 29.354- 29.394
ESTCUBE 1 25 Sep 23:41:47 23:46:17 69° 75° (ENE) 23:50:48 437.505/2401.250
HUMSAT D 25 Sep 23:43:04 23:45:39 16° 267° (W) 23:48:14 437.325/437.525
M-CUBED/EXP-1 PRIME 25 Sep 23:45:40 23:49:40 41° 69° (ENE) 23:53:24 437.505
POPSAT HIP 1 25 Sep 23:48:04 23:50:28 15° 93° (E) 23:52:52 437.405
VELOX 1 25 Sep 23:51:46 23:55:59 43° 72° (ENE) 00:00:13 145.980
DX 1 25 Sep 23:52:24 23:56:07 28° 69° (ENE) 23:59:51 434.975-435.025
ANTELSAT 26 Sep 00:01:02 00:05:14 45° 287° (WNW) 00:09:30 437.575/2403.000
CUBEBUG 1 26 Sep 00:02:06 00:06:31 74° 75° (ENE) 00:10:56 437.445
JUGNU 26 Sep 00:02:57 00:03:56 10° 183° (S) 00:04:56 437.505
NANOSAT C BR1 26 Sep 00:05:20 00:08:39 22° 95° (E) 00:11:58 145.865
TIGRISAT 26 Sep 00:22:38 00:26:23 28° 290° (WNW) 00:30:11 435.000
QB50P2 26 Sep 00:25:52 00:29:55 44° 99° (E) 00:33:58 145.880/145.840
POLYITAN 1 26 Sep 00:28:06 00:32:09 45° 99° (E) 00:36:11 437.675
50 SAT 26 Sep 00:31:55 00:35:29 60° 259° (W) 00:39:07 437.505
SO-50 26 Sep 00:42:52 00:47:09 38° 52° (NE) 00:51:19 436.795
AISAT 26 Sep 00:44:12 00:48:29 46° 261° (W) 00:52:47 437.250
AUBIESAT-1 26 Sep 00:44:46 00:48:48 47° 255° (WSW) 00:52:35 437.475
TISAT 1 26 Sep 00:49:07 00:52:06 19° 67° (ENE) 00:55:05 437.305
JAS-2 26 Sep 00:53:41 01:01:31 64° 100° (E) 01:08:59 435.910
SPROUT 26 Sep 00:54:25 00:58:40 70° 258° (WSW) 01:02:56 437.525
UKube-1 26 Sep 01:03:43 01:07:59 59° 259° (W) 01:12:17 .
UNISAT 6 26 Sep 01:04:59 01:05:52 11° 297° (WNW) 01:06:45 437.425
QB50P1 26 Sep 01:09:02 01:13:10 59° 286° (WNW) 01:17:18 145.935-145.965
DUCHIFAT 1 26 Sep 01:09:31 01:13:41 68° 285° (WNW) 01:17:50 145.980
M-CUBED/EXP-1 PRIME 26 Sep 01:21:42 01:24:15 15° 260° (W) 01:26:42 437.505
BUGSAT 1 26 Sep 01:21:44 01:25:43 64° 101° (E) 01:29:42 437.445
POPSAT HIP 1 26 Sep 01:22:28 01:26:26 42° 288° (WNW) 01:30:23 437.405
ESTCUBE 1 26 Sep 01:22:56 01:23:32 10° 270° (W) 01:24:08 437.505/2401.250
DX 1 26 Sep 01:28:40 01:32:15 25° 264° (W) 01:35:52 434.975-435.025
VELOX 1 26 Sep 01:29:50 01:32:37 16° 267° (W) 01:35:26 145.980
ITUPSAT 1 26 Sep 01:35:49 01:38:10 14° 62° (ENE) 01:40:30 437.325
BEESAT 3 26 Sep 01:37:54 01:41:35 42° 116° (ESE) 01:45:18 437.485
NANOSAT C BR1 26 Sep 01:40:47 01:44:21 28° 290° (WNW) 01:47:55 145.865
SWISSCUBE 26 Sep 01:48:51 01:52:22 21° 66° (ENE) 01:55:54 437.505
RS-15 26 Sep 01:56:45 02:05:01 20° 3° (N) 02:13:22 29.354- 29.394
BEESAT 26 Sep 02:01:42 02:05:33 25° 67° (ENE) 02:09:25 436.000
QB50P2 26 Sep 02:02:55 02:05:20 15° 295° (WNW) 02:07:45 145.880/145.840
POLYITAN 1 26 Sep 02:05:10 02:07:34 15° 295° (WNW) 02:09:59 437.675
Cosmos 2491 26 Sep 02:06:59 02:15:19 43° 74° (ENE) 02:23:32 435.465 / 435.565
TISAT 1 26 Sep 02:23:42 02:27:30 33° 262° (W) 02:31:19 437.305
SO-50 26 Sep 02:23:52 02:27:22 22° 249° (WSW) 02:30:47 436.795
BEESAT 2 26 Sep 02:28:20 02:32:15 79° 120° (ESE) 02:36:14 435.950
ISS 26 Sep 02:34:16 02:36:20 15° 19° (NNE) 02:38:23 145.825
Oscar 19 26 Sep 02:37:38 02:42:48 73° 102° (ESE) 02:47:55 437.125/150
JAS-2 26 Sep 02:39:29 02:45:53 29° 298° (WNW) 02:52:09 435.910
SRMSAT 26 Sep 02:43:23 02:44:11 10° 184° (S) 02:45:00 437.500
YUBILEINY 26 Sep 03:06:03 03:14:10 44° 87° (E) 03:22:15 435.215
ITUPSAT 1 26 Sep 03:10:42 03:15:25 65° 258° (WSW) 03:20:11 437.325
BEESAT 3 26 Sep 03:16:45 03:19:26 17° 313° (NW) 03:22:08 437.485
Gurwin Techsat 1B 26 Sep 03:17:11 03:22:32 81° 103° (ESE) 03:27:51 435.225
SWISSCUBE 26 Sep 03:25:25 03:29:52 40° 261° (W) 03:34:21 437.505
ITAMSAT 1 26 Sep 03:26:19 03:30:40 26° 96° (E) 03:35:01 435.822/435.867
Cosmos 2504 26 Sep 03:31:33 03:36:33 20° 82° (E) 03:41:25 435.465 / 435.565
STARS 26 Sep 03:35:31 03:37:00 12° 62° (ENE) 03:38:29 437.465
BEESAT 26 Sep 03:38:56 03:43:10 32° 263° (W) 03:47:27 436.000
MOZHAYETS 4 26 Sep 03:47:19 03:51:43 49° 73° (ENE) 03:56:08
Cosmos 2491 26 Sep 04:04:00 04:12:01 40° 273° (W) 04:20:00 435.465 / 435.565
BEESAT 2 26 Sep 04:09:09 04:10:36 12° 318° (NW) 04:12:02 435.950
ISS 26 Sep 04:10:00 04:13:17 73° 37° (NE) 04:16:35 145.825
AO-7 26 Sep 04:11:41 04:19:16 38° 99° (E) 04:26:49 29.400- 29.500
RS-15 26 Sep 04:11:43 04:22:51 36° 38° (NE) 04:33:47 29.354- 29.394
Oscar 19 26 Sep 04:18:55 04:21:28 14° 299° (WNW) 04:23:59 437.125/150
KKS-1 26 Sep 04:28:37 04:33:05 87° 256° (WSW) 04:37:34 437.445
AIST 2 26 Sep 04:31:38 04:35:37 55° 118° (ESE) 04:39:40 435.215
AIST 1 26 Sep 04:56:13 04:58:22 13° 85° (E) 05:00:30
Gurwin Techsat 1B 26 Sep 04:59:21 05:01:45 13° 300° (WNW) 05:04:08 435.225
CUBESAT XI-V 26 Sep 05:01:09 05:05:30 39° 71° (ENE) 05:09:53 437.345
YUBILEINY 26 Sep 05:02:52 05:10:57 40° 286° (WNW) 05:19:04 435.215
PCSat 26 Sep 05:03:01 05:08:15 52° 113° (ESE) 05:13:30 145.827
ITAMSAT 1 26 Sep 05:05:25 05:10:10 36° 291° (WNW) 05:14:53 435.822/435.867
STARS 26 Sep 05:08:25 05:12:47 66° 259° (WSW) 05:17:09 437.465
Cosmos 2504 26 Sep 05:21:45 05:29:12 67° 279° (W) 05:36:22 435.465 / 435.565
MOZHAYETS 4 26 Sep 05:26:34 05:29:09 15° 269° (W) 05:31:44
HORYU 2 26 Sep 05:41:29 05:45:15 26° 96° (E) 05:49:00 437.375
ISS 26 Sep 05:48:23 05:49:21 11° 232° (SW) 05:50:18 145.825
DANDE 26 Sep 05:51:02 05:55:30 15° 59° (ENE) 05:59:54 436.750
AO-7 26 Sep 06:04:18 06:12:05 47° 297° (WNW) 06:19:52 29.400- 29.500
AIST 2 26 Sep 06:11:52 06:14:26 16° 315° (NW) 06:17:03 435.215
CUSAT 1 26 Sep 06:22:05 06:29:38 47° 73° (ENE) 06:36:03 437.405
AO-85 26 Sep 06:24:00 06:27:42 30° 50° (NE) 06:31:12 145.980
RS-15 26 Sep 06:24:20 06:36:44 80° 243° (WSW) 06:48:47 29.354- 29.394
AIST 1 26 Sep 06:31:15 06:35:29 47° 281° (W) 06:39:44
BRITE-PL 26 Sep 06:32:36 06:37:23 54° 99° (E) 06:41:46 437.365/2234.400
GOMX 1 26 Sep 06:33:35 06:36:54 21° 93° (E) 06:40:07 467.674
CUBESAT XI-V 26 Sep 06:39:34 06:43:00 20° 267° (W) 06:46:26 437.345
NOAA 15 26 Sep 06:40:05 06:44:42 29° 96° (E) 06:49:16 137.62
PCSat 26 Sep 06:47:37 06:51:56 24° 311° (NW) 06:56:16 145.827
Cubesat XI-IV 26 Sep 06:48:36 06:53:13 29° 96° (E) 06:57:49 437.490
CUTE-I 26 Sep 06:49:25 06:54:05 30° 96° (E) 06:58:43 437.470
STRAND 1 26 Sep 06:50:23 06:54:41 28° 67° (ENE) 06:58:59 437.568
DOVE 4 26 Sep 07:05:44 07:08:39 18° 93° (E) 07:11:32 437.250
NOAA 18 26 Sep 07:12:35 07:17:40 38° 99° (E) 07:22:44 137.9125
HORYU 2 26 Sep 07:17:59 07:21:43 27° 292° (WNW) 07:25:27 437.375
HO-68 26 Sep 07:28:50 07:30:55 11° 88° (E) 07:32:59 435.675
DANDE 26 Sep 07:31:22 07:39:46 70° 78° (ENE) 07:47:40 436.750
GONETS M04 26 Sep 07:33:37 07:37:05 13° 75° (ENE) 07:40:32
LilacSat-2 26 Sep 07:36:41 07:40:31 73° 284° (WNW) 07:44:21 437.200
CANX-2 26 Sep 07:50:00 07:51:39 12° 90° (E) 07:53:17 2200.000
CUSAT 1 26 Sep 08:04:36 08:11:17 33° 274° (W) 08:17:07 437.405
AO-85 26 Sep 08:04:48 08:07:55 21° 249° (WSW) 08:10:55 145.980
O/OREOS (USA 219) 26 Sep 08:10:32 08:15:05 83° 109° (ESE) 08:19:41 437.305
GOMX 1 26 Sep 08:11:10 08:15:05 30° 290° (WNW) 08:18:49 467.674
BRITE-PL 26 Sep 08:12:30 08:15:17 15° 298° (WNW) 08:17:56 437.365/2234.400
NOAA 15 26 Sep 08:19:44 08:24:26 33° 292° (WNW) 08:29:06 137.62
Cubesat XI-IV 26 Sep 08:28:29 08:33:16 34° 292° (WNW) 08:38:03 437.490
STRAND 1 26 Sep 08:29:11 08:33:43 33° 263° (W) 08:38:18 437.568
CUTE-I 26 Sep 08:29:20 08:34:05 33° 292° (WNW) 08:38:49 437.470
CINEMA 3 26 Sep 08:31:39 08:35:37 42° 99° (E) 08:39:40 145.822/145.860
RS-15 26 Sep 08:39:46 08:47:09 19° 263° (W) 08:54:28 29.354- 29.394
Cosmos 2499 26 Sep 08:39:47 08:45:46 29° 86° (E) 08:51:38 435.465 / 435.565
DOVE 4 26 Sep 08:42:42 08:46:29 32° 289° (WNW) 08:50:09 437.250
NOAA 18 26 Sep 08:53:35 08:58:07 27° 295° (WNW) 09:02:40 137.9125
PRISM 26 Sep 08:56:34 09:00:35 49° 73° (ENE) 09:04:38 437.425
COMPASS 1 26 Sep 09:03:23 09:07:13 33° 97° (E) 09:11:02 437.405
HO-68 26 Sep 09:12:28 09:19:39 77° 105° (ESE) 09:26:48 435.675
ZACube-1 26 Sep 09:13:53 09:16:08 14° 92° (E) 09:18:23 437.345
DANDE 26 Sep 09:15:18 09:21:48 26° 276° (W) 09:28:03 436.750
Oscar 11 26 Sep 09:15:50 09:18:05 14° 91° (E) 09:20:21 145.826/435.025
CUTE 1.7 + AOD 2 26 Sep 09:22:43 09:26:59 65° 285° (WNW) 09:31:14 437.475
GONETS M04 26 Sep 09:23:28 09:32:15 76° 94° (E) 09:41:06
CANX-2 26 Sep 09:23:36 09:27:49 55° 285° (WNW) 09:32:00 2200.000
ANTELSAT 26 Sep 09:24:57 09:26:35 12° 64° (ENE) 09:28:13 437.575/2403.000
SEEDS 26 Sep 09:27:50 09:32:08 83° 281° (W) 09:36:22 437.485
TIGRISAT 26 Sep 09:44:32 09:47:31 19° 67° (ENE) 09:50:29 435.000
CUBEBUG 2 26 Sep 09:52:19 09:56:35 86° 286° (WNW) 10:00:58 437.445
O/OREOS (USA 219) 26 Sep 09:53:53 09:55:07 11° 308° (NW) 09:56:22 437.305
AAUSAT CUBESAT 2 26 Sep 09:56:13 10:00:25 74° 284° (WNW) 10:04:35 437.432
BEESAT 3 26 Sep 09:56:18 09:59:18 20° 48° (NE) 10:02:17 437.485
DELFI C3 26 Sep 09:59:10 10:01:37 16° 93° (E) 10:04:02 145.870
FUNcube-1 26 Sep 10:07:28 10:11:40 52° 99° (E) 10:15:58 145.935
CINEMA 3 26 Sep 10:10:04 10:12:26 15° 294° (WNW) 10:14:49 145.822/145.860
UWE-3 26 Sep 10:14:35 10:18:51 74° 285° (WNW) 10:23:15 435.000/436.395/437.385
UNISAT 6 26 Sep 10:23:07 10:27:18 54° 74° (ENE) 10:31:27 437.425
Cosmos 2499 26 Sep 10:31:45 10:38:33 44° 284° (WNW) 10:45:16 435.465 / 435.565
PRISM 26 Sep 10:34:17 10:36:08 13° 268° (W) 10:38:00 437.425
COMPASS 1 26 Sep 10:39:29 10:42:32 20° 292° (WNW) 10:45:33 437.405
POPSAT HIP 1 26 Sep 10:41:31 10:42:16 10° 63° (ENE) 10:43:02 437.405
BEESAT 2 26 Sep 10:47:22 10:51:02 32° 52° (NE) 10:54:40 435.950
ZACube-1 26 Sep 10:48:28 10:52:38 48° 286° (WNW) 10:56:52 437.345
Oscar 11 26 Sep 10:50:16 10:54:28 48° 287° (WNW) 10:58:40 145.826/435.025
NANOSAT C BR1 26 Sep 10:57:18 10:59:47 16° 66° (ENE) 11:02:16 145.865
PHONESAT 2.4 26 Sep 10:57:18 10:58:40 13° 147° (SSE) 11:00:03 2401.200-2431.200
ANTELSAT 26 Sep 10:58:35 11:02:48 58° 260° (W) 11:07:01 437.575/2403.000
HO-68 26 Sep 11:01:38 11:06:36 21° 303° (WNW) 11:11:34 435.675
JAS-2 26 Sep 11:05:28 11:10:34 25° 60° (ENE) 11:16:08 435.910
QB50P2 26 Sep 11:17:33 11:21:13 29° 70° (ENE) 11:24:51 145.880/145.840
POLYITAN 1 26 Sep 11:19:49 11:23:26 29° 70° (ENE) 11:27:05 437.675
TIGRISAT 26 Sep 11:20:02 11:23:58 35° 262° (W) 11:27:52 435.000
GONETS M04 26 Sep 11:23:22 11:29:58 23° 294° (WNW) 11:36:37
HUMSAT D 26 Sep 11:25:22 11:29:38 82° 102° (ESE) 11:33:55 437.325/437.525
DELFI C3 26 Sep 11:32:51 11:36:34 36° 288° (WNW) 11:40:14 145.870
BEESAT 3 26 Sep 11:33:23 11:37:03 36° 245° (WSW) 11:40:42 437.485
ESTCUBE 1 26 Sep 11:36:38 11:39:24 16° 92° (E) 11:42:09 437.505/2401.250
FUNcube-1 26 Sep 11:45:17 11:47:30 14° 295° (WNW) 11:49:44 145.935
CUBEBUG 1 26 Sep 11:53:19 11:55:40 14° 92° (E) 11:58:00 437.445
DUCHIFAT 1 26 Sep 11:59:53 12:04:03 74° 76° (ENE) 12:08:13 145.980
QB50P1 26 Sep 11:59:54 12:04:07 86° 80° (E) 12:08:20 145.935-145.965
UNISAT 6 26 Sep 12:02:46 12:04:19 12° 269° (W) 12:05:52 437.425
50 SAT 26 Sep 12:02:48 12:03:51 11° 92° (E) 12:04:54 437.505
BUGSAT 1 26 Sep 12:10:16 12:14:05 37° 72° (ENE) 12:17:52 437.445
POPSAT HIP 1 26 Sep 12:13:18 12:17:29 67° 259° (W) 12:21:40 437.405
Oscar 19 26 Sep 12:18:00 12:19:53 12° 60° (ENE) 12:21:44 437.125/150
BEESAT 2 26 Sep 12:25:37 12:28:38 21° 248° (WSW) 12:31:38 435.950
NANOSAT C BR1 26 Sep 12:31:10 12:35:09 42° 261° (W) 12:39:09 145.865
PHONESAT 2.4 26 Sep 12:31:31 12:34:24 58° 161° (SSE) 12:37:19 2401.200-2431.200
AISAT 26 Sep 12:35:23 12:39:24 34° 98° (E) 12:43:23 437.250
SPROUT 26 Sep 12:42:01 12:45:14 21° 94° (E) 12:48:27 437.525
JAS-2 26 Sep 12:48:46 12:54:57 60° 261° (W) 13:02:00 435.910
UKube-1 26 Sep 12:52:20 12:55:48 23° 96° (E) 12:59:15 .
QB50P2 26 Sep 12:53:45 12:57:00 21° 265° (W) 13:00:15 145.880/145.840
AIST 2 26 Sep 12:54:05 12:57:43 27° 50° (NE) 13:01:19 435.215
POLYITAN 1 26 Sep 12:56:01 12:59:14 21° 265° (W) 13:02:28 437.675
M-CUBED/EXP-1 PRIME 26 Sep 13:00:19 13:03:12 28° 103° (ESE) 13:06:04 437.505
Gurwin Techsat 1B 26 Sep 13:00:20 13:03:12 15° 61° (ENE) 13:06:03 435.225
ESTCUBE 1 26 Sep 13:12:05 13:16:26 46° 288° (WNW) 13:20:44 437.505/2401.250
DX 1 26 Sep 13:16:52 13:21:11 59° 101° (E) 13:25:26 434.975-435.025
YUBILEINY 26 Sep 13:18:17 13:24:13 20° 64° (ENE) 13:30:06 435.215
VELOX 1 26 Sep 13:18:55 13:23:20 80° 283° (WNW) 13:27:42 145.980
CUBEBUG 1 26 Sep 13:28:02 13:32:12 46° 287° (WNW) 13:36:18 437.445
50 SAT 26 Sep 13:34:05 13:37:33 42° 287° (WNW) 13:41:01 437.505
BUGSAT 1 26 Sep 13:47:01 13:49:34 16° 267° (W) 13:52:07 437.445
PCSat 26 Sep 13:52:00 13:56:56 34° 53° (NE) 14:01:50 145.827
Oscar 19 26 Sep 13:53:13 13:58:26 87° 259° (W) 14:03:40 437.125/150
AUBIESAT-1 26 Sep 13:58:39 14:01:51 48° 291° (WNW) 14:05:03 437.475
PHONESAT 2.4 26 Sep 14:07:37 14:10:33 65° 357° (N) 14:13:30 2401.200-2431.200
TISAT 1 26 Sep 14:08:13 14:12:06 36° 98° (E) 14:15:57 437.305
AISAT 26 Sep 14:12:23 14:15:38 21° 293° (WNW) 14:18:52 437.250
SPROUT 26 Sep 14:17:28 14:21:12 30° 289° (WNW) 14:24:54 437.525
UKube-1 26 Sep 14:28:06 14:31:48 28° 291° (WNW) 14:35:29 .
AIST 2 26 Sep 14:32:32 14:36:08 28° 247° (WSW) 14:39:42 435.215
M-CUBED/EXP-1 PRIME 26 Sep 14:35:50 14:37:30 13° 298° (WNW) 14:39:10 437.505
Gurwin Techsat 1B 26 Sep 14:37:13 14:42:30 72° 258° (WSW) 14:47:50 435.225
ITAMSAT 1 26 Sep 14:43:09 14:47:51 36° 69° (ENE) 14:52:34 435.822/435.867
DX 1 26 Sep 14:54:59 14:56:50 13° 297° (WNW) 14:58:40 434.975-435.025
SO-50 26 Sep 14:57:21 15:00:19 16° 109° (ESE) 15:03:16 436.795
Cosmos 2491 26 Sep 15:06:30 15:14:51 51° 89° (E) 15:23:15 435.465 / 435.565
AO-7 26 Sep 15:09:21 15:17:12 49° 64° (ENE) 15:25:03 29.400- 29.500
ITUPSAT 1 26 Sep 15:12:23 15:16:46 34° 97° (E) 15:21:08 437.325
YUBILEINY 26 Sep 15:13:23 15:22:07 84° 265° (W) 15:30:48 435.215
Cosmos 2504 26 Sep 15:14:31 15:21:24 39° 75° (ENE) 15:28:40 435.465 / 435.565
SWISSCUBE 26 Sep 15:26:11 15:30:55 55° 101° (E) 15:35:36 437.505
PCSat 26 Sep 15:35:28 15:40:16 33° 251° (WSW) 15:45:02 145.827
BEESAT 26 Sep 15:39:19 15:44:06 68° 102° (ESE) 15:48:52 436.000
PHONESAT 2.4 26 Sep 15:43:48 15:46:46 79° 194° (SSW) 15:49:44 2401.200-2431.200
TISAT 1 26 Sep 15:44:41 15:47:27 17° 294° (WNW) 15:50:12 437.305
MOZHAYETS 4 26 Sep 15:45:08 15:47:12 13° 91° (E) 15:49:15
